Regional Weather Roundup
Issued by NWS Midland/Odessa, TX

Home | Current Version | Previous Version | Text Only | Print | Product List | Glossary On
Versions: 1 2 3 4 5 6 7 8 9 10 11 12 13 14 15 16 17 18 19 20 21 22 23 24 25 26 27 28 29 30 31 32 33 34 35 36 37 38 39 40 41 42 43 44 45 46 47 48 49 50
000
ASUS44 KMAF 171802
RWRMAF
MIDLAND AREA WEATHER ROUNDUP
NATIONAL WEATHER SERVICE MIDLAND TX
100 PM CDT WED SEP 17 2014

...IN SOUTHWEST TEXAS AND SOUTHEAST NEW MEXICO...

CITY           SKY/WX    TMP DP  RH WIND       PRES   REMARKS
ALPINE         FAIR      78  60  53 CALM      30.16F
ANDREWS        FAIR      81  66  61 S5        30.05F
ARTESIA        NOT AVBL
BIG SPRING     FAIR      84  68  57 SW3       30.05F
CARLSBAD       MOSUNNY   79  68  69 SE5       30.05F
DRYDEN           N/A     85  70  60 VRB3      29.99F
FORT STOCKTON  FAIR      81  65  58 S8        30.04F
GUAD PASS      PTSUNNY   74  60  61 VRB3      30.18F
HOBBS          PTSUNNY   77  66  69 S8        30.09F
MARFA          FAIR      77  61  57 S8G17     30.15F
MIDLAND AIRPK  NOT AVBL
MIDLAND INTL   FAIR      83  66  56 SE6       30.03F
ODESSA         PTSUNNY   82  66  58 SW7       30.05F
PECOS          FAIR      81  65  57 SE7       30.02F
PRESIDIO       FAIR      84  61  45 SE5       30.01F
SEMINOLE       PTSUNNY   80  65  60 S8        30.08F
SNYDER         CLOUDY    78  71  79 W6        30.04F
WINK           FAIR      85  65  51 S10       30.01F
$$
...OTHER STATIONS IN TEXAS...

CITY           SKY/WX    TMP DP  RH WIND       PRES   REMARKS
ABILENE        FAIR      89  65  44 VRB5      29.98F
AMARILLO       FAIR      78  63  59 SW17G26   30.07F
AUSTIN         PTSUNNY   87  75  67 E8        29.94F
BROWNSVILLE    LGT RAIN  87  77  72 S14       29.92F
CORPUS CHRISTI PTSUNNY   89  74  60 SW10      29.93F
DALLAS FTW     PTSUNNY   90  69  50 VRB6      29.94F
DEL RIO        FAIR      86  72  62 E5        29.94F
EL PASO        PTSUNNY   76  63  64 VRB7      30.07F
HOUSTON INT    PTSUNNY   84  74  71 NE5       29.95F
LUBBOCK        PTSUNNY   77  67  71 SW8       30.07F
SAN ANGELO     PTSUNNY   86  66  51 NE6       29.99F
SAN ANTONIO    CLOUDY    88  72  58 S9        29.95F
WACO           PTSUNNY   87  72  60 VRB3      29.96F
WICHITA FALLS  NOT AVBL
$$
...OTHER LOCATIONS IN NEW MEXICO...

CITY           SKY/WX    TMP DP  RH WIND       PRES   REMARKS
ALAMAGORDO     PTSUNNY   73  64  73 N8        30.12F
ALBUQUERQUE    LGT RAIN  64  59  83 CALM      30.20S
CANNON AFB     RAIN      66  66 100 NW8       30.14F FOG
CLOVIS           N/A     66  64  94 W8        30.17R
HOLLOMAN AFB   PTSUNNY   71  64  78 NW12      30.10F
ROSWELL        CLOUDY    72  66  81 NE6       30.09F
RUIDOSO        LGT RAIN  59  57  94 NE3       30.28F
SANTA FE       CLOUDY    64  52  64 VRB6      30.23F
TRUTH OR CONSE CLOUDY    67  63  87 E6        30.15S
TUCUMCARI      CLOUDY    76  59  55 SW16      30.08F
$$


USA.gov is the U.S. government's official web portal to all federal, state and local government web resources and services.